When you browse on this site, cookies collect data to enhance your experience and personalize the content and advertising you see.
Visit our Privacy Policy to learn more. By continuing to use the site, you agree to this use of cookies and data.
  • In Hungary
  • List of Countries
  • For 7 days
  • Water Temperature
  • Weather Map
  • News
  • Weather Widgets
  • user-avatar
    Login

    Hourly Weather Syuryuk

    Today, 14 November, Thursday

    Time Temperature Precipitation Wind Pressure Humidity
    00:00 +11°C° 0 mm 6 mps 712 mmHg 94%
    01:00 +12°C° 0 mm 5 mps 712 mmHg 94%
    02:00 +12°C° 0 mm 2 mps 712 mmHg 91%
    03:00 +11°C° 0 mm 3 mps 712 mmHg 89%
    04:00 +12°C° 0 mm 3 mps 712 mmHg 89%
    05:00 +13°C° 0 mm 2 mps 713 mmHg 90%
    06:00 +12°C° 0 mm 2 mps 713 mmHg 90%
    07:00 +13°C° 0 mm 2 mps 713 mmHg 90%
    08:00 +13°C° 0 mm 1 mps 714 mmHg 88%
    09:00 +13°C° 0 mm 2 mps 714 mmHg 89%
    10:00 +13°C° 0 mm 2 mps 714 mmHg 91%
    11:00 +14°C° 0 mm 2 mps 715 mmHg 89%
    12:00 +15°C° 0 mm 2 mps 715 mmHg 88%
    13:00 +15°C° 0 mm 2 mps 715 mmHg 87%
    14:00 +15°C° 0 mm 2 mps 715 mmHg 88%
    15:00 +15°C° 0 mm 2 mps 715 mmHg 88%
    16:00 +15°C° 0 mm 2 mps 715 mmHg 90%
    17:00 +15°C° 0 mm 2 mps 715 mmHg 89%
    18:00 +14°C° 0 mm 2 mps 715 mmHg 90%
    19:00 +14°C° 0 mm 2 mps 715 mmHg 87%
    20:00 +12°C° 0 mm 3 mps 715 mmHg 93%
    21:00 +13°C° 0 mm 2 mps 715 mmHg 94%
    22:00 +14°C° 0 mm 1 mps 715 mmHg 89%
    23:00 +14°C° 0 mm 1 mps 715 mmHg 84%

    Tomorrow, 15 November, Friday

    Time Temperature Precipitation Wind Pressure Humidity
    00:00 +13°C° 0.2 mm 1 mps 715 mmHg 95%
    01:00 +13°C° 0 mm 1 mps 715 mmHg 94%
    02:00 +12°C° 0 mm 0 mps 716 mmHg 93%
    03:00 +12°C° 0.8 mm 1 mps 716 mmHg 100%
    04:00 +12°C° 4 mm 2 mps 715 mmHg 100%
    05:00 +11°C° 0.3 mm 3 mps 716 mmHg 94%
    06:00 +10°C° 0.1 mm 2 mps 716 mmHg 99%
    07:00 +10°C° 0 mm 0 mps 716 mmHg 96%
    08:00 +11°C° 0 mm 1 mps 716 mmHg 95%
    09:00 +11°C° 0.1 mm 1 mps 716 mmHg 96%
    10:00 +10°C° 0.1 mm 2 mps 717 mmHg 95%
    11:00 +10°C° 0 mm 2 mps 717 mmHg 94%
    12:00 +10°C° 0 mm 2 mps 717 mmHg 91%
    13:00 +12°C° 0 mm 2 mps 717 mmHg 90%
    14:00 +12°C° 0 mm 2 mps 717 mmHg 90%
    15:00 +12°C° 0 mm 2 mps 717 mmHg 89%
    16:00 +12°C° 0 mm 2 mps 717 mmHg 92%
    17:00 +10°C° 0 mm 2 mps 717 mmHg 93%
    18:00 +10°C° 0 mm 2 mps 717 mmHg 95%
    19:00 +10°C° 0 mm 2 mps 718 mmHg 96%
    20:00 +9°C° 0 mm 3 mps 718 mmHg 96%
    21:00 +9°C° 0 mm 3 mps 718 mmHg 95%
    22:00 +9°C° 0 mm 3 mps 718 mmHg 95%
    23:00 +8°C° 0 mm 4 mps 719 mmHg 95%

    Day after tomorrow, 16 November, Saturday

    Time Temperature Precipitation Wind Pressure Humidity
    00:00 +8°C° 0 mm 4 mps 719 mmHg 94%
    01:00 +8°C° 0 mm 4 mps 719 mmHg 94%
    02:00 +8°C° 0 mm 4 mps 719 mmHg 94%
    03:00 +8°C° 0 mm 4 mps 719 mmHg 93%
    04:00 +8°C° 0 mm 4 mps 719 mmHg 92%
    05:00 +9°C° 0 mm 3 mps 719 mmHg 90%
    06:00 +8°C° 0 mm 4 mps 719 mmHg 88%
    07:00 +8°C° 0 mm 4 mps 719 mmHg 87%
    08:00 +8°C° 0 mm 4 mps 720 mmHg 86%
    09:00 +8°C° 0 mm 4 mps 720 mmHg 85%
    10:00 +10°C° 0 mm 3 mps 720 mmHg 86%
    11:00 +12°C° 0 mm 3 mps 721 mmHg 86%
    12:00 +13°C° 0 mm 3 mps 721 mmHg 86%
    13:00 +13°C° 0 mm 3 mps 721 mmHg 86%
    14:00 +14°C° 0 mm 3 mps 721 mmHg 87%
    15:00 +14°C° 0 mm 3 mps 721 mmHg 89%
    16:00 +13°C° 0 mm 3 mps 720 mmHg 91%
    17:00 +12°C° 0 mm 3 mps 720 mmHg 91%
    18:00 +12°C° 0 mm 3 mps 720 mmHg 90%
    19:00 +12°C° 0 mm 3 mps 720 mmHg 88%
    20:00 +12°C° 0 mm 3 mps 720 mmHg 87%
    21:00 +11°C° 0 mm 3 mps 721 mmHg 85%
    22:00 +11°C° 0 mm 3 mps 721 mmHg 83%
    23:00 +11°C° 0 mm 3 mps 721 mmHg 84%

    17 November, Sunday

    Time Temperature Precipitation Wind Pressure Humidity
    00:00 +11°C° 0 mm 3 mps 721 mmHg 85%
    01:00 +11°C° 0 mm 3 mps 721 mmHg 86%
    02:00 +11°C° 0 mm 4 mps 721 mmHg 87%
    03:00 +10°C° 0 mm 4 mps 721 mmHg 86%
    04:00 +10°C° 0 mm 4 mps 720 mmHg 85%
    05:00 +10°C° 0 mm 4 mps 720 mmHg 83%
    06:00 +10°C° 0 mm 4 mps 720 mmHg 83%
    07:00 +8°C° 0 mm 4 mps 720 mmHg 84%
    08:00 +8°C° 0 mm 4 mps 720 mmHg 83%
    09:00 +10°C° 0 mm 3 mps 720 mmHg 82%
    10:00 +11°C° 0 mm 3 mps 721 mmHg 81%
    11:00 +12°C° 0 mm 4 mps 721 mmHg 80%
    12:00 +12°C° 0 mm 3 mps 721 mmHg 80%
    13:00 +13°C° 0 mm 3 mps 720 mmHg 81%
    14:00 +14°C° 0 mm 3 mps 720 mmHg 83%
    15:00 +14°C° 0 mm 3 mps 720 mmHg 85%
    16:00 +13°C° 0 mm 3 mps 720 mmHg 85%
    17:00 +13°C° 0 mm 3 mps 720 mmHg 85%
    18:00 +12°C° 0 mm 3 mps 719 mmHg 84%
    19:00 +12°C° 0 mm 4 mps 719 mmHg 83%
    20:00 +12°C° 0 mm 4 mps 719 mmHg 81%
    21:00 +12°C° 0 mm 4 mps 719 mmHg 80%
    22:00 +12°C° 0 mm 4 mps 719 mmHg 80%
    23:00 +12°C° 0 mm 5 mps 719 mmHg 78%

    18 November, Monday

    Time Temperature Precipitation Wind Pressure Humidity
    00:00 +12°C° 0 mm 5 mps 718 mmHg 77%
    01:00 +10°C° 0 mm 5 mps 718 mmHg 76%
    02:00 +10°C° 0 mm 5 mps 718 mmHg 76%

    19 November, Tuesday

    Time Temperature Precipitation Wind Pressure Humidity
    Show more